Time,TemperatureF,DewpointF,PressureIn,WindDirection,WindDirectionDegrees,WindSpeedMPH,WindSpeedGustMPH,Humidity,HourlyPrecipIn,Conditions,Clouds,dailyrainin,SoftwareType,DateUTC
2013-06-19 00:02:00,72.9,28.2,29.83,SSW,208,0.0,0.0,19,0.00,,---,0.00,VWS V14.01,2013-06-19 07:02:00,
2013-06-19 00:07:00,72.0,27.5,29.92,SW,218,0.0,0.0,19,0.00,,---,0.00,VWS V14.01,2013-06-19 07:07:00,
2013-06-19 00:12:00,69.8,25.7,29.92,SW,218,0.0,0.0,19,0.00,,---,0.00,VWS V14.01,2013-06-19 07:12:00,
2013-06-19 00:17:00,68.5,25.9,29.92,SW,223,0.0,0.0,20,0.00,,---,0.00,VWS V14.01,2013-06-19 07:17:00,
2013-06-19 00:22:00,68.7,26.1,29.83,SW,224,0.0,0.0,20,0.00,,---,0.00,VWS V14.01,2013-06-19 07:22:00,
2013-06-19 00:27:00,68.9,26.2,29.83,SW,223,0.0,0.0,20,0.00,,---,0.00,VWS V14.01,2013-06-19 07:27:00,
2013-06-19 00:32:00,69.4,26.7,29.83,SW,223,0.0,0.0,20,0.00,,---,0.00,VWS V14.01,2013-06-19 07:32:00,
2013-06-19 00:37:00,69.4,26.7,29.83,SW,223,0.0,0.0,20,0.00,,---,0.00,VWS V14.01,2013-06-19 07:37:00,
2013-06-19 00:43:00,69.3,26.5,29.83,SW,223,0.0,0.0,20,0.00,,---,0.00,VWS V14.01,2013-06-19 07:43:00,
2013-06-19 00:48:00,69.1,26.4,29.83,SW,223,0.0,0.0,20,0.00,,---,0.00,VWS V14.01,2013-06-19 07:48:00,
2013-06-19 00:53:00,69.3,26.5,29.86,SW,223,0.0,0.0,20,0.00,,---,0.00,VWS V14.01,2013-06-19 07:53:00,
2013-06-19 00:58:00,69.4,26.7,29.86,SW,223,0.0,0.0,20,0.00,,---,0.00,VWS V14.01,2013-06-19 07:58:00,
2013-06-19 01:03:00,69.3,26.5,29.86,SW,223,0.0,0.0,20,0.00,,---,0.00,VWS V14.01,2013-06-19 08:03:00,
2013-06-19 01:08:00,68.4,25.8,29.86,SW,223,0.0,0.0,20,0.00,,---,0.00,VWS V14.01,2013-06-19 08:08:00,
2013-06-19 01:13:00,67.8,25.3,29.86,SW,223,0.0,0.0,20,0.00,,---,0.00,VWS V14.01,2013-06-19 08:13:00,
2013-06-19 01:18:00,67.6,25.2,29.86,SW,223,0.0,0.0,20,0.00,,---,0.00,VWS V14.01,2013-06-19 08:18:00,
2013-06-19 01:23:00,67.1,24.7,29.86,SW,223,0.0,0.0,20,0.00,,---,0.00,VWS V14.01,2013-06-19 08:23:00,
2013-06-19 01:28:00,67.1,24.7,29.86,SW,219,0.0,0.0,20,0.00,,---,0.00,VWS V14.01,2013-06-19 08:28:00,
2013-06-19 01:33:00,67.5,25.0,29.86,SW,217,0.0,0.0,20,0.00,,---,0.00,VWS V14.01,2013-06-19 08:33:00,
2013-06-19 01:38:00,67.3,24.9,29.83,SW,218,0.0,0.0,20,0.00,,---,0.00,VWS V14.01,2013-06-19 08:38:00,
2013-06-19 01:43:00,67.1,24.7,29.83,SW,218,0.0,0.0,20,0.00,,---,0.00,VWS V14.01,2013-06-19 08:43:00,
2013-06-19 01:48:00,66.7,24.4,29.83,SW,218,0.0,0.0,20,0.00,,---,0.00,VWS V14.01,2013-06-19 08:48:00,
2013-06-19 01:53:00,66.6,24.3,29.83,WNW,283,0.0,0.0,20,0.00,,---,0.00,VWS V14.01,2013-06-19 08:53:00,
2013-06-19 01:58:00,66.9,24.6,29.83,WNW,282,0.0,0.0,20,0.00,,---,0.00,VWS V14.01,2013-06-19 08:58:00,
2013-06-19 02:03:00,66.7,24.4,29.83,WNW,282,0.0,0.0,20,0.00,,---,0.00,VWS V14.01,2013-06-19 09:03:00,
2013-06-19 02:08:00,66.4,24.1,29.83,WNW,282,0.0,0.0,20,0.00,,---,0.00,VWS V14.01,2013-06-19 09:08:00,
2013-06-19 02:13:00,66.2,24.0,29.83,West,276,0.0,0.0,20,0.00,,---,0.00,VWS V14.01,2013-06-19 09:13:00,
2013-06-19 02:18:00,66.2,24.0,29.83,West,276,0.0,0.0,20,0.00,,---,0.00,VWS V14.01,2013-06-19 09:18:00,
2013-06-19 02:23:00,66.0,23.8,29.86,West,270,0.0,0.0,20,0.00,,---,0.00,VWS V14.01,2013-06-19 09:23:00,
2013-06-19 02:28:00,66.4,24.1,29.86,West,260,0.0,0.0,20,0.00,,---,0.00,VWS V14.01,2013-06-19 09:28:00,
2013-06-19 02:33:00,67.1,24.7,29.77,West,260,0.0,0.0,20,0.00,,---,0.00,VWS V14.01,2013-06-19 09:33:00,
2013-06-19 02:38:00,67.5,25.0,29.77,West,260,0.0,0.0,20,0.00,,---,0.00,VWS V14.01,2013-06-19 09:38:00,
2013-06-19 02:43:00,67.1,24.7,29.77,West,260,0.0,0.0,20,0.00,,---,0.00,VWS V14.01,2013-06-19 09:43:00,
2013-06-19 02:48:00,66.7,24.4,29.95,West,260,0.0,0.0,20,0.00,,---,0.00,VWS V14.01,2013-06-19 09:48:00,
2013-06-19 02:53:00,66.6,24.3,29.95,WSW,257,0.0,0.0,20,0.00,,---,0.00,VWS V14.01,2013-06-19 09:53:00,
2013-06-19 02:58:00,65.8,23.7,29.95,WSW,257,0.0,0.0,20,0.00,,---,0.00,VWS V14.01,2013-06-19 09:58:00,
2013-06-19 03:03:00,65.1,23.1,29.95,WSW,257,0.0,0.0,20,0.00,,---,0.00,VWS V14.01,2013-06-19 10:03:00,
2013-06-19 03:08:00,64.2,23.5,30.03,WSW,257,0.0,0.0,21,0.00,,---,0.00,VWS V14.01,2013-06-19 10:08:00,
2013-06-19 03:13:00,63.5,22.9,30.03,WSW,257,0.0,0.0,21,0.00,,---,0.00,VWS V14.01,2013-06-19 10:13:00,
2013-06-19 03:18:00,63.1,22.6,29.89,WSW,257,0.0,0.0,21,0.00,,---,0.00,VWS V14.01,2013-06-19 10:18:00,
2013-06-19 03:23:00,63.1,22.6,29.89,WSW,257,0.0,0.0,21,0.00,,---,0.00,VWS V14.01,2013-06-19 10:23:00,
2013-06-19 03:28:00,63.0,22.5,29.89,WSW,257,0.0,0.0,21,0.00,,---,0.00,VWS V14.01,2013-06-19 10:28:00,
2013-06-19 03:33:00,63.1,22.6,29.86,WSW,248,0.0,0.0,21,0.00,,---,0.00,VWS V14.01,2013-06-19 10:33:00,
2013-06-19 03:38:00,63.0,22.5,29.86,WSW,248,0.0,0.0,21,0.00,,---,0.00,VWS V14.01,2013-06-19 10:38:00,
2013-06-19 03:43:00,62.6,22.1,29.86,WSW,248,0.0,0.0,21,0.00,,---,0.00,VWS V14.01,2013-06-19 10:43:00,
2013-06-19 03:48:00,62.1,21.7,29.83,WSW,243,0.0,0.0,21,0.00,,---,0.00,VWS V14.01,2013-06-19 10:48:00,
2013-06-19 03:54:00,61.9,21.5,29.83,WSW,243,0.0,0.0,21,0.00,,---,0.00,VWS V14.01,2013-06-19 10:54:00,
2013-06-19 03:59:00,62.2,21.9,29.83,WSW,241,0.0,0.0,21,0.00,,---,0.00,VWS V14.01,2013-06-19 10:59:00,
2013-06-19 04:04:00,61.9,21.5,29.86,WSW,241,0.0,0.0,21,0.00,,---,0.00,VWS V14.01,2013-06-19 11:04:00,
2013-06-19 04:09:00,61.9,21.5,29.86,WSW,245,0.0,0.0,21,0.00,,---,0.00,VWS V14.01,2013-06-19 11:09:00,
2013-06-19 04:14:00,61.9,21.5,29.86,WSW,245,0.0,0.0,21,0.00,,---,0.00,VWS V14.01,2013-06-19 11:14:00,
2013-06-19 04:19:00,61.9,21.5,29.86,WSW,245,0.0,0.0,21,0.00,,---,0.00,VWS V14.01,2013-06-19 11:19:00,
2013-06-19 04:24:00,61.5,21.2,29.86,WSW,245,0.0,0.0,21,0.00,,---,0.00,VWS V14.01,2013-06-19 11:24:00,
2013-06-19 04:29:00,61.0,20.8,29.86,WSW,245,0.0,0.0,21,0.00,,---,0.00,VWS V14.01,2013-06-19 11:29:00,
2013-06-19 04:34:00,60.6,21.6,29.98,WSW,237,0.0,0.0,22,0.00,,---,0.00,VWS V14.01,2013-06-19 11:34:00,
2013-06-19 04:39:00,60.4,21.4,29.98,WSW,237,0.0,0.0,22,0.00,,---,0.00,VWS V14.01,2013-06-19 11:39:00,
2013-06-19 04:44:00,60.6,21.6,29.98,WSW,237,0.0,0.0,22,0.00,,---,0.00,VWS V14.01,2013-06-19 11:44:00,
2013-06-19 04:49:00,61.0,20.8,29.86,WSW,237,0.0,0.0,21,0.00,,---,0.00,VWS V14.01,2013-06-19 11:49:00,
2013-06-19 04:54:00,61.2,20.9,29.86,WSW,237,0.0,0.0,21,0.00,,---,0.00,VWS V14.01,2013-06-19 11:54:00,
2013-06-19 04:59:00,61.7,21.4,29.86,SW,235,0.0,0.0,21,0.00,,---,0.00,VWS V14.01,2013-06-19 11:59:00,
2013-06-19 05:04:00,61.3,21.1,29.92,SW,234,0.0,0.0,21,0.00,,---,0.00,VWS V14.01,2013-06-19 12:04:00,
2013-06-19 05:09:00,61.0,20.8,29.92,SW,234,0.0,0.0,21,0.00,,---,0.00,VWS V14.01,2013-06-19 12:09:00,
2013-06-19 05:14:00,60.8,20.6,29.92,SW,233,0.0,0.0,21,0.00,,---,0.00,VWS V14.01,2013-06-19 12:14:00,
2013-06-19 05:19:00,60.4,21.4,29.89,SW,233,0.0,0.0,22,0.00,,---,0.00,VWS V14.01,2013-06-19 12:19:00,
2013-06-19 05:24:00,60.3,21.3,29.89,SW,233,0.0,0.0,22,0.00,,---,0.00,VWS V14.01,2013-06-19 12:24:00,
2013-06-19 05:29:00,59.9,21.0,29.89,SW,233,0.0,0.0,22,0.00,,---,0.00,VWS V14.01,2013-06-19 12:29:00,
2013-06-19 05:34:00,60.3,21.3,29.83,SW,234,0.0,0.0,22,0.00,,---,0.00,VWS V14.01,2013-06-19 12:34:00,
2013-06-19 05:39:00,60.6,21.6,29.83,SW,232,0.0,0.0,22,0.00,,---,0.00,VWS V14.01,2013-06-19 12:39:00,
2013-06-19 05:44:00,61.2,20.9,29.83,SW,232,0.0,0.0,21,0.00,,---,0.00,VWS V14.01,2013-06-19 12:44:00,
2013-06-19 05:49:00,61.9,21.5,29.83,SW,232,0.0,0.0,21,0.00,,---,0.00,VWS V14.01,2013-06-19 12:49:00,
2013-06-19 05:54:00,62.6,22.1,29.83,SW,232,0.0,0.0,21,0.00,,---,0.00,VWS V14.01,2013-06-19 12:54:00,
2013-06-19 05:59:00,63.1,22.6,29.83,SW,232,0.0,0.0,21,0.00,,---,0.00,VWS V14.01,2013-06-19 12:59:00,
2013-06-19 06:04:00,63.9,23.2,29.80,SW,232,0.0,0.0,21,0.00,,---,0.00,VWS V14.01,2013-06-19 13:04:00,
2013-06-19 06:09:00,64.8,22.8,29.80,SW,230,0.0,0.0,20,0.00,,---,0.00,VWS V14.01,2013-06-19 13:09:00,
2013-06-19 06:14:00,65.5,23.4,29.80,SW,230,0.0,0.0,20,0.00,,---,0.00,VWS V14.01,2013-06-19 13:14:00,
2013-06-19 06:19:00,66.2,24.0,29.80,SW,230,0.0,0.0,20,0.00,,---,0.00,VWS V14.01,2013-06-19 13:19:00,
2013-06-19 06:24:00,67.1,24.7,29.80,SW,230,0.0,0.0,20,0.00,,---,0.00,VWS V14.01,2013-06-19 13:24:00,
2013-06-19 06:29:00,67.8,25.3,29.80,SW,230,0.0,0.0,20,0.00,,---,0.00,VWS V14.01,2013-06-19 13:29:00,
2013-06-19 06:34:00,68.2,25.6,29.77,SW,230,0.0,0.0,20,0.00,,---,0.00,VWS V14.01,2013-06-19 13:34:00,
2013-06-19 06:39:00,68.5,25.9,29.77,SW,230,0.0,0.0,20,0.00,,---,0.00,VWS V14.01,2013-06-19 13:39:00,
2013-06-19 06:45:00,68.7,26.1,29.77,SW,230,0.0,0.0,20,0.00,,---,0.00,VWS V14.01,2013-06-19 13:45:00,
2013-06-19 06:50:00,68.9,26.2,29.77,SW,234,0.0,0.0,20,0.00,,---,0.00,VWS V14.01,2013-06-19 13:50:00,
2013-06-19 06:55:00,69.6,26.8,29.77,WSW,239,0.0,0.0,20,0.00,,---,0.00,VWS V14.01,2013-06-19 13:55:00,
2013-06-19 07:00:00,70.5,26.3,29.77,WSW,244,0.0,0.0,19,0.00,,---,0.00,VWS V14.01,2013-06-19 14:00:00,
2013-06-19 07:05:00,70.9,26.6,29.77,West,278,0.0,0.0,19,0.00,,---,0.00,VWS V14.01,2013-06-19 14:05:00,
2013-06-19 07:10:00,71.2,26.9,29.77,NW,307,0.0,0.0,19,0.00,,---,0.00,VWS V14.01,2013-06-19 14:10:00,
2013-06-19 07:15:00,71.2,26.9,29.77,NW,307,0.0,0.0,19,0.00,,---,0.00,VWS V14.01,2013-06-19 14:15:00,
2013-06-19 07:20:00,71.6,27.2,29.86,NW,310,0.0,0.0,19,0.00,,---,0.00,VWS V14.01,2013-06-19 14:20:00,
2013-06-19 07:25:00,72.0,27.5,29.86,NW,306,0.0,0.0,19,0.00,,---,0.00,VWS V14.01,2013-06-19 14:25:00,
2013-06-19 07:30:00,72.5,27.9,29.86,NW,312,0.0,0.0,19,0.00,,---,0.00,VWS V14.01,2013-06-19 14:30:00,
2013-06-19 07:35:00,73.0,28.4,29.89,North,350,2.2,2.7,19,0.00,,---,0.00,VWS V14.01,2013-06-19 14:35:00,
2013-06-19 07:40:00,73.6,27.5,29.89,NNW,342,0.0,0.0,18,0.00,,---,0.00,VWS V14.01,2013-06-19 14:40:00,
2013-06-19 07:45:00,74.1,27.9,29.89,North,353,0.0,0.0,18,0.00,,---,0.00,VWS V14.01,2013-06-19 14:45:00,
2013-06-19 07:50:00,74.7,28.4,29.86,North,353,0.0,0.0,18,0.00,,---,0.00,VWS V14.01,2013-06-19 14:50:00,
2013-06-19 07:55:00,75.2,28.8,29.86,North,353,0.0,0.0,18,0.00,,---,0.00,VWS V14.01,2013-06-19 14:55:00,
2013-06-19 08:00:00,75.6,29.1,29.86,North,353,0.0,0.0,18,0.00,,---,0.00,VWS V14.01,2013-06-19 15:00:00,
2013-06-19 08:05:00,75.7,29.3,29.86,North,0,0.0,0.0,18,0.00,,---,0.00,VWS V14.01,2013-06-19 15:05:00,
2013-06-19 08:10:00,76.1,29.6,29.86,North,0,0.0,0.0,18,0.00,,---,0.00,VWS V14.01,2013-06-19 15:10:00,
2013-06-19 08:15:00,76.8,30.1,29.86,North,0,0.0,0.0,18,0.00,,---,0.00,VWS V14.01,2013-06-19 15:15:00,
2013-06-19 08:20:00,77.4,30.6,29.92,North,0,0.0,0.0,18,0.00,,---,0.00,VWS V14.01,2013-06-19 15:20:00,
2013-06-19 08:25:00,78.1,31.2,29.92,North,6,0.0,0.0,18,0.00,,---,0.00,VWS V14.01,2013-06-19 15:25:00,
2013-06-19 08:30:00,78.8,30.4,29.92,NNE,29,0.0,0.0,17,0.00,,---,0.00,VWS V14.01,2013-06-19 15:30:00,
2013-06-19 08:35:00,79.2,30.6,30.01,NE,43,0.0,0.0,17,0.00,,---,0.00,VWS V14.01,2013-06-19 15:35:00,
2013-06-19 08:40:00,80.4,31.7,30.01,East,89,3.1,4.9,17,0.00,,---,0.00,VWS V14.01,2013-06-19 15:40:00,
2013-06-19 08:45:00,81.3,32.4,30.01,NE,47,5.8,5.8,17,0.00,,---,0.00,VWS V14.01,2013-06-19 15:45:00,
2013-06-19 08:50:00,81.7,32.7,29.92,East,82,0.0,0.0,17,0.00,,---,0.00,VWS V14.01,2013-06-19 15:50:00,
2013-06-19 08:55:00,82.6,33.4,29.92,ENE,60,0.0,0.0,17,0.00,,---,0.00,VWS V14.01,2013-06-19 15:55:00,
2013-06-19 09:00:00,83.1,33.8,29.92,ENE,63,0.0,0.0,17,0.00,,---,0.00,VWS V14.01,2013-06-19 16:00:00,
2013-06-19 09:05:00,84.6,35.0,29.83,East,99,0.0,0.0,17,0.00,,---,0.00,VWS V14.01,2013-06-19 16:05:00,
2013-06-19 09:11:00,85.5,35.7,29.83,ENE,72,0.0,0.0,17,0.00,,---,0.00,VWS V14.01,2013-06-19 16:11:00,
2013-06-19 09:16:00,86.4,36.5,29.83,NE,47,0.0,0.0,17,0.00,,---,0.00,VWS V14.01,2013-06-19 16:16:00,
2013-06-19 09:21:00,87.1,37.0,29.83,East,99,0.0,0.0,17,0.00,,---,0.00,VWS V14.01,2013-06-19 16:21:00,
2013-06-19 09:26:00,87.6,37.5,29.83,ESE,102,0.0,0.0,17,0.00,,---,0.00,VWS V14.01,2013-06-19 16:26:00,
2013-06-19 09:31:00,87.6,37.5,29.83,SE,127,0.0,0.0,17,0.00,,---,0.00,VWS V14.01,2013-06-19 16:31:00,
2013-06-19 09:36:00,87.8,37.6,29.83,SE,130,14.1,14.1,17,0.00,,---,0.00,VWS V14.01,2013-06-19 16:36:00,
2013-06-19 09:41:00,88.3,38.0,29.83,SE,139,4.9,8.7,17,0.00,,---,0.00,VWS V14.01,2013-06-19 16:41:00,
2013-06-19 09:46:00,88.7,38.3,29.83,ESE,109,0.0,0.0,17,0.00,,---,0.00,VWS V14.01,2013-06-19 16:46:00,
2013-06-19 09:51:00,88.7,38.3,29.83,ESE,113,0.0,0.0,17,0.00,,---,0.00,VWS V14.01,2013-06-19 16:51:00,
2013-06-19 09:56:00,88.7,38.3,29.83,SE,129,0.0,0.0,17,0.00,,---,0.00,VWS V14.01,2013-06-19 16:56:00,